TimeEDT,TemperatureF,Dew PointF,Humidity,Sea Level PressureIn,VisibilityMPH,Wind Direction,Wind SpeedMPH,Gust SpeedMPH,PrecipitationIn,Events,Conditions,WindDirDegrees,DateUTC
12:53 AM,63.0,62.1,97,29.85,8.0,SE,5.8,-,N/A,,Overcast,140,2013-05-06 04:53:00
1:53 AM,63.0,61.0,93,29.84,9.0,SSE,4.6,-,N/A,,Overcast,160,2013-05-06 05:53:00
2:22 AM,62.6,60.8,94,29.84,10.0,Calm,Calm,-,N/A,,Overcast,0,2013-05-06 06:22:00
2:53 AM,62.1,60.1,93,29.82,9.0,Calm,Calm,-,N/A,,Mostly Cloudy,0,2013-05-06 06:53:00
2:58 AM,60.8,60.8,100,29.82,9.0,Calm,Calm,-,N/A,,Mostly Cloudy,0,2013-05-06 06:58:00
3:46 AM,60.8,60.8,100,29.82,7.0,Calm,Calm,-,N/A,,Overcast,0,2013-05-06 07:46:00
3:53 AM,61.0,60.1,97,29.82,6.0,South,3.5,-,N/A,,Overcast,180,2013-05-06 07:53:00
4:15 AM,60.8,59.0,94,29.83,9.0,SSW,3.5,-,N/A,,Scattered Clouds,200,2013-05-06 08:15:00
4:31 AM,59.0,57.2,94,29.83,1.5,SSW,3.5,-,N/A,,Clear,200,2013-05-06 08:31:00
4:40 AM,60.8,57.2,88,29.83,2.0,Calm,Calm,-,N/A,,Clear,0,2013-05-06 08:40:00
4:48 AM,59.0,57.2,94,29.83,8.0,Calm,Calm,-,N/A,,Clear,0,2013-05-06 08:48:00
4:53 AM,59.0,57.9,96,29.83,10.0,Calm,Calm,-,N/A,,Clear,0,2013-05-06 08:53:00
5:53 AM,57.0,55.9,96,29.84,10.0,SW,5.8,-,N/A,,Clear,220,2013-05-06 09:53:00
6:53 AM,55.9,54.0,93,29.86,9.0,SW,3.5,-,N/A,,Clear,230,2013-05-06 10:53:00
7:51 AM,57.2,55.4,94,29.88,9.0,WSW,4.6,-,N/A,,Scattered Clouds,240,2013-05-06 11:51:00
7:53 AM,57.0,55.0,93,29.87,9.0,WSW,6.9,-,N/A,,Scattered Clouds,250,2013-05-06 11:53:00
8:01 AM,57.2,55.4,94,29.88,8.0,WSW,6.9,-,N/A,,Mostly Cloudy,250,2013-05-06 12:01:00
8:53 AM,55.9,54.0,93,29.89,9.0,West,8.1,-,N/A,,Overcast,270,2013-05-06 12:53:00
9:43 AM,57.2,53.6,88,29.91,10.0,WSW,9.2,-,N/A,,Overcast,250,2013-05-06 13:43:00
9:53 AM,57.9,53.1,84,29.91,9.0,West,9.2,-,N/A,,Overcast,270,2013-05-06 13:53:00
10:22 AM,57.2,51.8,82,29.91,10.0,West,11.5,-,N/A,,Overcast,280,2013-05-06 14:22:00
10:49 AM,60.8,51.8,72,29.92,10.0,West,9.2,-,N/A,,Scattered Clouds,280,2013-05-06 14:49:00
10:53 AM,62.1,53.1,72,29.92,10.0,WSW,6.9,-,N/A,,Scattered Clouds,240,2013-05-06 14:53:00
11:53 AM,63.0,46.9,56,29.92,10.0,West,8.1,-,N/A,,Clear,260,2013-05-06 15:53:00
12:53 PM,66.9,46.9,49,29.90,10.0,SW,10.4,-,N/A,,Clear,230,2013-05-06 16:53:00
1:53 PM,69.1,48.0,47,29.88,10.0,SW,10.4,-,N/A,,Clear,230,2013-05-06 17:53:00
2:53 PM,68.0,46.0,45,29.87,10.0,Variable,5.8,-,N/A,,Clear,0,2013-05-06 18:53:00
3:53 PM,70.0,45.0,41,29.85,10.0,SW,9.2,-,N/A,,Clear,230,2013-05-06 19:53:00
4:53 PM,71.1,45.0,39,29.85,10.0,NW,8.1,-,N/A,,Partly Cloudy,310,2013-05-06 20:53:00
5:53 PM,69.1,45.0,42,29.86,10.0,WSW,9.2,-,N/A,,Scattered Clouds,240,2013-05-06 21:53:00
6:53 PM,66.9,46.0,47,29.86,10.0,West,8.1,-,N/A,,Scattered Clouds,260,2013-05-06 22:53:00
7:53 PM,63.0,48.0,58,29.88,10.0,WSW,5.8,-,N/A,,Clear,250,2013-05-06 23:53:00
8:53 PM,61.0,50.0,67,29.90,10.0,West,4.6,-,N/A,,Clear,280,2013-05-07 00:53:00
9:53 PM,61.0,48.0,62,29.92,10.0,West,5.8,-,N/A,,Clear,270,2013-05-07 01:53:00
10:53 PM,57.9,50.0,75,29.94,10.0,Calm,Calm,-,N/A,,Clear,0,2013-05-07 02:53:00
11:53 PM,57.0,50.0,77,29.94,10.0,Calm,Calm,-,N/A,,Partly Cloudy,0,2013-05-07 03:53:00